Tracking 18850 objects as of 22-Nov-2017
HD Live streaming from Space Station
objects crossing your sky now

FENGYUN 1C DEB

Track FENGYUN 1C DEB now!
10-day predictions


NORAD ID: 32223
Int'l Code: 1999-025CVV
Perigee: 833.3 km
Apogee: 912.6 km
Inclination: 99.0 °
Period: 102.3 minutes
Semi major axis: 7243 km
RCS: 0.0134 m2 (small)
Launch date: May 10, 1999
Source: People's Republic of China (PRC)
Launch site: Taiyaun Space Center, China (TSC)

Note: This is SATELLITE DEBRIS
aabbcc
Your satellite tracking list
Your tracking list is empty




NASA's NSSDC Master Catalog

Two Line Element Set (TLE):
1 32223U 99025CVV 17324.00099920 +.00000631 +00000-0 +39163-3 0  9998
2 32223 099.0259 016.6886 0054699 352.8059 125.9093 14.08118550226796
Source of the keplerian elements: AFSPC